#Datum;Uhrzeit;WR;Pac;DaySum;Status;WR;Pac;DaySum;Status;Pdc1;Udc;Temp;WR;Pac;DaySum;Status;Pdc1;Udc;Temp;WR;Pac;DaySum;Status;Pdc1;Udc;Temp;WR;Pac;DaySum;Status;Pdc1;Pdc2;Udc1;Udc2;Temp;WR;Pac;DaySum;Status;Pdc1;Pdc2;Udc1;Udc2;Temp;WR;Pac;DaySum;Status;Pdc1;Udc;Temp;WR;Pac;DaySum;Status;Pdc1;Udc;Temp;WR;Pac;DaySum;Status;Pdc1;Udc;Temp
01.01.19;23:55:00;1;313;14100;0;2;0;553;0;0;0;0;3;0;257;0;0;0;0;4;0;379;0;0;0;0;5;0;1602;0;0;0;0;0;0;6;0;1003;0;0;0;0;0;0;7;0;455;0;0;0;0;8;0;460;0;0;0;0;9;0;159;0;0;0;0
01.01.19;23:50:00;1;314;14074;0;2;0;553;0;0;0;0;3;0;257;0;0;0;0;4;0;379;0;0;0;0;5;0;1602;0;0;0;0;0;0;6;0;1003;0;0;0;0;0;0;7;0;455;0;0;0;0;8;0;460;0;0;0;0;9;0;159;0;0;0;0
01.01.19;23:45:00;1;327;14047;0;2;0;553;0;0;0;0;3;0;257;0;0;0;0;4;0;379;0;0;0;0;5;0;1602;0;0;0;0;0;0;6;0;1003;0;0;0;0;0;0;7;0;455;0;0;0;0;8;0;460;0;0;0;0;9;0;159;0;0;0;0
01.01.19;23:40:00;1;551;14019;0;2;0;553;0;0;0;0;3;0;257;0;0;0;0;4;0;379;0;0;0;0;5;0;1602;0;0;0;0;0;0;6;0;1003;0;0;0;0;0;0;7;0;455;0;0;0;0;8;0;460;0;0;0;0;9;0;159;0;0;0;0
01.01.19;23:35:00;1;338;13965;0;2;0;553;0;0;0;0;3;0;257;0;0;0;0;4;0;379;0;0;0;0;5;0;1602;0;0;0;0;0;0;6;0;1003;0;0;0;0;0;0;7;0;455;0;0;0;0;8;0;460;0;0;0;0;9;0;159;0;0;0;0
01.01.19;23:30:00;1;353;13937;0;2;0;553;0;0;0;0;3;0;257;0;0;0;0;4;0;379;0;0;0;0;5;0;1602;0;0;0;0;0;0;6;0;1003;0;0;0;0;0;0;7;0;455;0;0;0;0;8;0;460;0;0;0;0;9;0;159;0;0;0;0
01.01.19;23:25:00;1;352;13907;0;2;0;553;0;0;0;0;3;0;257;0;0;0;0;4;0;379;0;0;0;0;5;0;1602;0;0;0;0;0;0;6;0;1003;0;0;0;0;0;0;7;0;455;0;0;0;0;8;0;460;0;0;0;0;9;0;159;0;0;0;0
01.01.19;23:20:00;1;354;13877;0;2;0;553;0;0;0;0;3;0;257;0;0;0;0;4;0;379;0;0;0;0;5;0;1602;0;0;0;0;0;0;6;0;1003;0;0;0;0;0;0;7;0;455;0;0;0;0;8;0;460;0;0;0;0;9;0;159;0;0;0;0
01.01.19;23:15:00;1;319;13848;0;2;0;553;0;0;0;0;3;0;257;0;0;0;0;4;0;379;0;0;0;0;5;0;1602;0;0;0;0;0;0;6;0;1003;0;0;0;0;0;0;7;0;455;0;0;0;0;8;0;460;0;0;0;0;9;0;159;0;0;0;0
01.01.19;23:10:00;1;314;13820;0;2;0;553;0;0;0;0;3;0;257;0;0;0;0;4;0;379;0;0;0;0;5;0;1602;0;0;0;0;0;0;6;0;1003;0;0;0;0;0;0;7;0;455;0;0;0;0;8;0;460;0;0;0;0;9;0;159;0;0;0;0
01.01.19;23:05:00;1;312;13794;0;2;0;553;0;0;0;0;3;0;257;0;0;0;0;4;0;379;0;0;0;0;5;0;1602;0;0;0;0;0;0;6;0;1003;0;0;0;0;0;0;7;0;455;0;0;0;0;8;0;460;0;0;0;0;9;0;159;0;0;0;0
01.01.19;23:00:00;1;320;13768;0;2;0;553;0;0;0;0;3;0;257;0;0;0;0;4;0;379;0;0;0;0;5;0;1602;0;0;0;0;0;0;6;0;1003;0;0;0;0;0;0;7;0;455;0;0;0;0;8;0;460;0;0;0;0;9;0;159;0;0;0;0
01.01.19;22:55:00;1;737;13741;0;2;0;553;0;0;0;0;3;0;257;0;0;0;0;4;0;379;0;0;0;0;5;0;1602;2;0;0;0;0;0;6;0;1003;2;0;0;0;0;0;7;0;455;0;0;0;0;8;0;460;0;0;0;0;9;0;159;0;0;0;0
01.01.19;22:50:00;1;335;13688;0;2;0;553;0;0;0;0;3;0;257;0;0;0;0;4;0;379;0;0;0;0;5;0;1602;2;0;0;0;0;0;6;0;1003;2;0;0;0;0;0;7;0;455;0;0;0;0;8;0;460;0;0;0;0;9;0;159;0;0;0;0
01.01.19;22:45:00;1;407;13659;0;2;0;553;0;0;0;0;3;0;257;0;0;0;0;4;0;379;0;0;0;0;5;0;1602;2;0;0;0;0;0;6;0;1003;2;0;0;0;0;0;7;0;455;0;0;0;0;8;0;460;0;0;0;0;9;0;159;0;0;0;0
01.01.19;22:40:00;1;442;13624;0;2;0;553;0;0;0;0;3;0;257;0;0;0;0;4;0;379;0;0;0;0;5;0;1602;2;0;0;0;0;0;6;0;1003;2;0;0;0;0;0;7;0;455;0;0;0;0;8;0;460;0;0;0;0;9;0;159;0;0;0;0
01.01.19;22:35:00;1;441;13587;0;2;0;553;0;0;0;0;3;0;257;0;0;0;0;4;0;379;0;0;0;0;5;0;1602;2;0;0;0;0;0;6;0;1003;2;0;0;0;0;0;7;0;455;0;0;0;0;8;0;460;0;0;0;0;9;0;159;0;0;0;0
01.01.19;22:30:00;1;445;13549;0;2;0;553;0;0;0;0;3;0;257;0;0;0;0;4;0;379;0;0;0;0;5;0;1602;2;0;0;0;0;0;6;0;1003;2;0;0;0;0;0;7;0;455;0;0;0;0;8;0;460;0;0;0;0;9;0;159;0;0;0;0
01.01.19;22:25:00;1;507;13512;0;2;0;553;0;0;0;0;3;0;257;0;0;0;0;4;0;379;0;0;0;0;5;0;1602;2;0;0;0;0;0;6;0;1003;2;0;0;0;0;0;7;0;455;0;0;0;0;8;0;460;0;0;0;0;9;0;159;0;0;0;0
01.01.19;22:20:00;1;541;13470;0;2;0;553;0;0;0;0;3;0;257;0;0;0;0;4;0;379;0;0;0;0;5;0;1602;2;0;0;0;0;0;6;0;1003;2;0;0;0;0;0;7;0;455;0;0;0;0;8;0;460;0;0;0;0;9;0;159;0;0;0;0
01.01.19;22:15:00;1;621;13424;0;2;0;553;0;0;0;0;3;0;257;0;0;0;0;4;0;379;0;0;0;0;5;0;1602;2;0;0;0;0;0;6;0;1003;2;0;0;0;0;0;7;0;455;0;0;0;0;8;0;460;0;0;0;0;9;0;159;0;0;0;0
01.01.19;22:10:00;1;850;13357;0;2;0;553;0;0;0;0;3;0;257;0;0;0;0;4;0;379;0;0;0;0;5;0;1602;2;0;0;0;0;0;6;0;1003;2;0;0;0;0;0;7;0;455;0;0;0;0;8;0;460;0;0;0;0;9;0;159;0;0;0;0
01.01.19;22:05:00;1;513;13312;0;2;0;553;0;0;0;0;3;0;257;0;0;0;0;4;0;379;0;0;0;0;5;0;1602;2;0;0;0;0;0;6;0;1003;2;0;0;0;0;0;7;0;455;0;0;0;0;8;0;460;0;0;0;0;9;0;159;0;0;0;0
01.01.19;22:00:00;1;502;13270;0;2;0;553;0;0;0;0;3;0;257;0;0;0;0;4;0;379;0;0;0;0;5;0;1602;2;0;0;0;0;0;6;0;1003;2;0;0;0;0;0;7;0;455;0;0;0;0;8;0;460;0;0;0;0;9;0;159;0;0;0;0
01.01.19;21:55:00;1;510;13227;0;2;0;553;0;0;0;0;3;0;257;0;0;0;0;4;0;379;0;0;0;0;5;0;1602;2;0;0;0;0;0;6;0;1003;2;0;0;0;0;0;7;0;455;0;0;0;0;8;0;460;0;0;0;0;9;0;159;0;0;0;0
01.01.19;21:50:00;1;523;13184;0;2;0;553;0;0;0;0;3;0;257;0;0;0;0;4;0;379;0;0;0;0;5;0;1602;2;0;0;0;0;0;6;0;1003;2;0;0;0;0;0;7;0;455;0;0;0;0;8;0;460;0;0;0;0;9;0;159;0;0;0;0
01.01.19;21:45:00;1;451;13142;0;2;0;553;0;0;0;0;3;0;257;0;0;0;0;4;0;379;0;0;0;0;5;0;1602;2;0;0;0;0;0;6;0;1003;2;0;0;0;0;0;7;0;455;0;0;0;0;8;0;460;0;0;0;0;9;0;159;0;0;0;0
01.01.19;21:40:00;1;440;13104;0;2;0;553;0;0;0;0;3;0;257;0;0;0;0;4;0;379;0;0;0;0;5;0;1602;2;0;0;0;0;0;6;0;1003;2;0;0;0;0;0;7;0;455;0;0;0;0;8;0;460;0;0;0;0;9;0;159;0;0;0;0
01.01.19;21:35:00;1;447;13067;0;2;0;553;0;0;0;0;3;0;257;0;0;0;0;4;0;379;0;0;0;0;5;0;1602;2;0;0;0;0;0;6;0;1003;2;0;0;0;0;0;7;0;455;0;0;0;0;8;0;460;0;0;0;0;9;0;159;0;0;0;0
01.01.19;21:30:00;1;431;13030;0;2;0;553;0;0;0;0;3;0;257;0;0;0;0;4;0;379;0;0;0;0;5;0;1602;2;0;0;0;0;0;6;0;1003;2;0;0;0;0;0;7;0;455;0;0;0;0;8;0;460;0;0;0;0;9;0;159;0;0;0;0
01.01.19;21:25:00;1;478;12994;0;2;0;553;0;0;0;0;3;0;257;0;0;0;0;4;0;379;0;0;0;0;5;0;1602;2;0;0;0;0;0;6;0;1003;2;0;0;0;0;0;7;0;455;0;0;0;0;8;0;460;0;0;0;0;9;0;159;0;0;0;0
01.01.19;21:20:00;1;469;12954;0;2;0;553;0;0;0;0;3;0;257;0;0;0;0;4;0;379;0;0;0;0;5;0;1602;2;0;0;0;0;0;6;0;1003;2;0;0;0;0;0;7;0;455;0;0;0;0;8;0;460;0;0;0;0;9;0;159;0;0;0;0
01.01.19;21:15:00;1;468;12915;0;2;0;553;0;0;0;0;3;0;257;0;0;0;0;4;0;379;0;0;0;0;5;0;1602;2;0;0;0;0;0;6;0;1003;2;0;0;0;0;0;7;0;455;0;0;0;0;8;0;460;0;0;0;0;9;0;159;0;0;0;0
01.01.19;21:10:00;1;813;12868;0;2;0;553;0;0;0;0;3;0;257;0;0;0;0;4;0;379;0;0;0;0;5;0;1602;2;0;0;0;0;0;6;0;1003;2;0;0;0;0;0;7;0;455;0;0;0;0;8;0;460;0;0;0;0;9;0;159;0;0;0;0
01.01.19;21:05:00;1;455;12813;0;2;0;553;0;0;0;0;3;0;257;0;0;0;0;4;0;379;0;0;0;0;5;0;1602;2;0;0;0;0;0;6;0;1003;2;0;0;0;0;0;7;0;455;0;0;0;0;8;0;460;0;0;0;0;9;0;159;0;0;0;0
01.01.19;21:00:00;1;428;12775;0;2;0;553;0;0;0;0;3;0;257;0;0;0;0;4;0;379;0;0;0;0;5;0;1602;2;0;0;0;0;0;6;0;1003;2;0;0;0;0;0;7;0;455;0;0;0;0;8;0;460;0;0;0;0;9;0;159;0;0;0;0
01.01.19;20:55:00;1;451;12739;0;2;0;553;0;0;0;0;3;0;257;0;0;0;0;4;0;379;0;0;0;0;5;0;1602;2;0;0;0;0;0;6;0;1003;2;0;0;0;0;0;7;0;455;0;0;0;0;8;0;460;0;0;0;0;9;0;159;0;0;0;0
01.01.19;20:50:00;1;450;12702;0;2;0;553;0;0;0;0;3;0;257;0;0;0;0;4;0;379;0;0;0;0;5;0;1602;2;0;0;0;0;0;6;0;1003;2;0;0;0;0;0;7;0;455;0;0;0;0;8;0;460;0;0;0;0;9;0;159;0;0;0;0
01.01.19;20:45:00;1;451;12664;0;2;0;553;0;0;0;0;3;0;257;0;0;0;0;4;0;379;0;0;0;0;5;0;1602;2;0;0;0;0;0;6;0;1003;2;0;0;0;0;0;7;0;455;0;0;0;0;8;0;460;0;0;0;0;9;0;159;0;0;0;0
01.01.19;20:40:00;1;472;12626;0;2;0;553;0;0;0;0;3;0;257;0;0;0;0;4;0;379;0;0;0;0;5;0;1602;2;0;0;0;0;0;6;0;1003;2;0;0;0;0;0;7;0;455;0;0;0;0;8;0;460;0;0;0;0;9;0;159;0;0;0;0
01.01.19;20:35:00;1;1430;12563;0;2;0;553;0;0;0;0;3;0;257;0;0;0;0;4;0;379;0;0;0;0;5;0;1602;2;0;0;0;0;0;6;0;1003;2;0;0;0;0;0;7;0;455;0;0;0;0;8;0;460;0;0;0;0;9;0;159;0;0;0;0
01.01.19;20:30:00;1;929;12466;0;2;0;553;0;0;0;0;3;0;257;0;0;0;0;4;0;379;0;0;0;0;5;0;1602;2;0;0;0;0;0;6;0;1003;2;0;0;0;0;0;7;0;455;0;0;0;0;8;0;460;0;0;0;0;9;0;159;0;0;0;0
01.01.19;20:25:00;1;480;12395;0;2;0;553;0;0;0;0;3;0;257;0;0;0;0;4;0;379;0;0;0;0;5;0;1602;2;0;0;0;0;0;6;0;1003;2;0;0;0;0;0;7;0;455;0;0;0;0;8;0;460;0;0;0;0;9;0;159;0;0;0;0
01.01.19;20:20:00;1;505;12355;0;2;0;553;0;0;0;0;3;0;257;0;0;0;0;4;0;379;0;0;0;0;5;0;1602;2;0;0;0;0;0;6;0;1003;2;0;0;0;0;0;7;0;455;0;0;0;0;8;0;460;0;0;0;0;9;0;159;0;0;0;0
01.01.19;20:15:00;1;600;12312;0;2;0;553;0;0;0;0;3;0;257;0;0;0;0;4;0;379;0;0;0;0;5;0;1602;2;0;0;0;0;0;6;0;1003;2;0;0;0;0;0;7;0;455;0;0;0;0;8;0;460;0;0;0;0;9;0;159;0;0;0;0
01.01.19;20:10:00;1;1946;12261;0;2;0;553;0;0;0;0;3;0;257;0;0;0;0;4;0;379;0;0;0;0;5;0;1602;2;0;0;0;0;0;6;0;1003;2;0;0;0;0;0;7;0;455;0;0;0;0;8;0;460;0;0;0;0;9;0;159;0;0;0;0
01.01.19;20:05:00;1;2408;12085;0;2;0;553;0;0;0;0;3;0;257;0;0;0;0;4;0;379;0;0;0;0;5;0;1602;2;0;0;0;0;0;6;0;1003;2;0;0;0;0;0;7;0;455;0;0;0;0;8;0;460;0;0;0;0;9;0;159;0;0;0;0
01.01.19;20:00:00;1;2615;11883;0;2;0;553;0;0;0;0;3;0;257;0;0;0;0;4;0;379;0;0;0;0;5;0;1602;2;0;0;0;0;0;6;0;1003;2;0;0;0;0;0;7;0;455;0;0;0;0;8;0;460;0;0;0;0;9;0;159;0;0;0;0
01.01.19;19:55:00;1;1398;11655;0;2;0;553;0;0;0;0;3;0;257;0;0;0;0;4;0;379;0;0;0;0;5;0;1602;2;0;0;0;0;0;6;0;1003;2;0;0;0;0;0;7;0;455;0;0;0;0;8;0;460;0;0;0;0;9;0;159;0;0;0;0
01.01.19;19:50:00;1;1755;11559;0;2;0;553;0;0;0;0;3;0;257;0;0;0;0;4;0;379;0;0;0;0;5;0;1602;2;0;0;0;0;0;6;0;1003;2;0;0;0;0;0;7;0;455;0;0;0;0;8;0;460;0;0;0;0;9;0;159;0;0;0;0
01.01.19;19:45:00;1;576;11424;0;2;0;553;0;0;0;0;3;0;257;0;0;0;0;4;0;379;0;0;0;0;5;0;1602;2;0;0;0;0;0;6;0;1003;2;0;0;0;0;0;7;0;455;0;0;0;0;8;0;460;0;0;0;0;9;0;159;0;0;0;0
01.01.19;19:40:00;1;504;11377;0;2;0;553;0;0;0;0;3;0;257;0;0;0;0;4;0;379;0;0;0;0;5;0;1602;2;0;0;0;0;0;6;0;1003;2;0;0;0;0;0;7;0;455;0;0;0;0;8;0;460;0;0;0;0;9;0;159;0;0;0;0
01.01.19;19:35:00;1;1854;11335;0;2;0;553;0;0;0;0;3;0;257;0;0;0;0;4;0;379;0;0;0;0;5;0;1602;2;0;0;0;0;0;6;0;1003;2;0;0;0;0;0;7;0;455;0;0;0;0;8;0;460;0;0;0;0;9;0;159;0;0;0;0
01.01.19;19:30:00;1;1017;11146;0;2;0;553;0;0;0;0;3;0;257;0;0;0;0;4;0;379;0;0;0;0;5;0;1602;2;0;0;0;0;0;6;0;1003;2;0;0;0;0;0;7;0;455;0;0;0;0;8;0;460;0;0;0;0;9;0;159;0;0;0;0
01.01.19;19:25:00;1;1103;11069;0;2;0;553;0;0;0;0;3;0;257;0;0;0;0;4;0;379;0;0;0;0;5;0;1602;2;0;0;0;0;0;6;0;1003;2;0;0;0;0;0;7;0;455;0;0;0;0;8;0;460;0;0;0;0;9;0;159;0;0;0;0
01.01.19;19:20:00;1;2469;10935;0;2;0;553;0;0;0;0;3;0;257;0;0;0;0;4;0;379;0;0;0;0;5;0;1602;2;0;0;0;0;0;6;0;1003;2;0;0;0;0;0;7;0;455;0;0;0;0;8;0;460;0;0;0;0;9;0;159;0;0;0;0
01.01.19;19:15:00;1;527;10737;0;2;0;553;0;0;0;0;3;0;257;0;0;0;0;4;0;379;0;0;0;0;5;0;1602;2;0;0;0;0;0;6;0;1003;2;0;0;0;0;0;7;0;455;0;0;0;0;8;0;460;0;0;0;0;9;0;159;0;0;0;0
01.01.19;19:10:00;1;2219;10693;0;2;0;553;0;0;0;0;3;0;257;0;0;0;0;4;0;379;0;0;0;0;5;0;1602;2;0;0;0;0;0;6;0;1003;2;0;0;0;0;0;7;0;455;0;0;0;0;8;0;460;0;0;0;0;9;0;159;0;0;0;0
01.01.19;19:05:00;1;2564;10502;0;2;0;553;0;0;0;0;3;0;257;0;0;0;0;4;0;379;0;0;0;0;5;0;1602;2;0;0;0;0;0;6;0;1003;2;0;0;0;0;0;7;0;455;0;0;0;0;8;0;460;0;0;0;0;9;0;159;0;0;0;0
01.01.19;19:00:00;1;1187;10288;0;2;0;553;0;0;0;0;3;0;257;0;0;0;0;4;0;379;0;0;0;0;5;0;1602;2;0;0;0;0;0;6;0;1003;2;0;0;0;0;0;7;0;455;0;0;0;0;8;0;460;0;0;0;0;9;0;159;0;0;0;0
01.01.19;18:55:00;1;678;10220;0;2;0;553;0;0;0;0;3;0;257;0;0;0;0;4;0;379;0;0;0;0;5;0;1602;2;0;0;0;0;0;6;0;1003;2;0;0;0;0;0;7;0;455;0;0;0;0;8;0;460;0;0;0;0;9;0;159;0;0;0;0
01.01.19;18:50:00;1;677;10163;0;2;0;553;0;0;0;0;3;0;257;0;0;0;0;4;0;379;0;0;0;0;5;0;1602;2;0;0;0;0;0;6;0;1003;2;0;0;0;0;0;7;0;455;0;0;0;0;8;0;460;0;0;0;0;9;0;159;0;0;0;0
01.01.19;18:45:00;1;618;10107;0;2;0;553;0;0;0;0;3;0;257;0;0;0;0;4;0;379;0;0;0;0;5;0;1602;2;0;0;0;0;0;6;0;1003;2;0;0;0;0;0;7;0;455;0;0;0;0;8;0;460;0;0;0;0;9;0;159;0;0;0;0
01.01.19;18:40:00;1;850;10060;0;2;0;553;0;0;0;0;3;0;257;0;0;0;0;4;0;379;0;0;0;0;5;0;1602;2;0;0;0;0;0;6;0;1003;2;0;0;0;0;0;7;0;455;0;0;0;0;8;0;460;0;0;0;0;9;0;159;0;0;0;0
01.01.19;18:35:00;1;663;9978;0;2;0;553;0;0;0;0;3;0;257;0;0;0;0;4;0;379;0;0;0;0;5;0;1602;2;0;0;0;0;0;6;0;1003;2;0;0;0;0;0;7;0;455;0;0;0;0;8;0;460;0;0;0;0;9;0;159;0;0;0;0
01.01.19;18:30:00;1;671;9922;0;2;0;553;0;0;0;0;3;0;257;0;0;0;0;4;0;379;0;0;0;0;5;0;1602;2;0;0;0;0;0;6;0;1003;2;0;0;0;0;0;7;0;455;0;0;0;0;8;0;460;0;0;0;0;9;0;159;0;0;0;0
01.01.19;18:25:00;1;711;9865;0;2;0;553;0;0;0;0;3;0;257;0;0;0;0;4;0;379;0;0;0;0;5;0;1602;2;0;0;0;0;0;6;0;1003;2;0;0;0;0;0;7;0;455;0;0;0;0;8;0;460;0;0;0;0;9;0;159;0;0;0;0
01.01.19;18:20:00;1;774;9806;0;2;0;553;0;0;0;0;3;0;257;0;0;0;0;4;0;379;0;0;0;0;5;0;1602;2;0;0;0;0;0;6;0;1003;2;0;0;0;0;0;7;0;455;0;0;0;0;8;0;460;0;0;0;0;9;0;159;0;0;0;0
01.01.19;18:15:00;1;779;9742;0;2;0;553;0;0;0;0;3;0;257;0;0;0;0;4;0;379;0;0;0;0;5;0;1602;2;0;0;0;0;0;6;0;1003;2;0;0;0;0;0;7;0;455;0;0;0;0;8;0;460;0;0;0;0;9;0;159;0;0;0;0
01.01.19;18:10:00;1;742;9676;0;2;0;553;0;0;0;0;3;0;257;0;0;0;0;4;0;379;0;0;0;0;5;0;1602;2;0;0;0;0;0;6;0;1003;2;0;0;0;0;0;7;0;455;0;0;0;0;8;0;460;0;0;0;0;9;0;159;0;0;0;0
01.01.19;18:05:00;1;733;9615;0;2;0;553;0;0;0;0;3;0;257;0;0;0;0;4;0;379;0;0;0;0;5;0;1602;2;0;0;0;0;0;6;0;1003;2;0;0;0;0;0;7;0;455;0;0;0;0;8;0;460;0;0;0;0;9;0;159;0;0;0;0
01.01.19;18:00:00;1;752;9552;0;2;0;553;0;0;0;0;3;0;257;0;0;0;0;4;0;379;0;0;0;0;5;0;1602;2;0;0;0;0;0;6;0;1003;2;0;0;0;0;0;7;0;455;0;0;0;0;8;0;460;0;0;0;0;9;0;159;0;0;0;0
01.01.19;17:55:00;1;738;9489;0;2;0;553;0;0;0;0;3;0;257;0;0;0;0;4;0;379;0;0;0;0;5;0;1602;2;0;0;0;0;0;6;0;1003;2;0;0;0;0;0;7;0;455;0;0;0;0;8;0;460;0;0;0;0;9;0;159;0;0;0;0
01.01.19;17:50:00;1;873;9428;0;2;0;553;0;0;0;0;3;0;257;0;0;0;0;4;0;379;0;0;0;0;5;0;1602;2;0;0;0;0;0;6;0;1003;2;0;0;0;0;0;7;0;455;0;0;0;0;8;0;460;0;0;0;0;9;0;159;0;0;0;0
01.01.19;17:45:00;1;1695;9352;0;2;0;553;0;0;0;0;3;0;257;0;0;0;0;4;0;379;0;0;0;0;5;0;1602;2;0;0;0;0;0;6;0;1003;2;0;0;0;0;0;7;0;455;0;0;0;0;8;0;460;0;0;0;0;9;0;159;0;0;0;0
01.01.19;17:40:00;1;1879;9231;0;2;0;553;0;0;0;0;3;0;257;0;0;0;0;4;0;379;0;0;0;0;5;0;1602;2;0;0;0;0;0;6;0;1003;2;0;0;0;0;0;7;0;455;0;0;0;0;8;0;460;0;0;0;0;9;0;159;0;0;0;0
01.01.19;17:35:00;1;2252;9058;0;2;0;553;0;0;0;0;3;0;257;0;0;0;0;4;0;379;0;0;0;0;5;0;1602;2;0;0;0;0;0;6;0;1003;2;0;0;0;0;0;7;0;455;0;0;0;0;8;0;460;0;0;0;0;9;0;159;0;0;0;0
01.01.19;17:30:00;1;3021;8847;0;2;0;553;0;0;0;0;3;0;257;0;0;0;0;4;0;379;0;0;0;0;5;0;1602;2;0;0;0;0;0;6;0;1003;2;0;0;0;0;0;7;0;455;0;0;0;0;8;0;460;0;0;0;0;9;0;159;0;0;0;0
01.01.19;17:25:00;1;4078;8607;0;2;0;553;0;0;0;0;3;0;257;0;0;0;0;4;0;379;0;0;0;0;5;0;1602;2;0;0;0;0;0;6;0;1003;2;0;0;0;0;0;7;0;455;0;0;0;0;8;0;460;0;0;0;0;9;0;159;0;0;0;0
01.01.19;17:20:00;1;1547;8328;0;2;0;553;0;0;0;0;3;0;257;0;0;0;0;4;0;379;0;0;0;0;5;0;1602;2;0;0;0;0;0;6;0;1003;2;0;0;0;0;0;7;0;455;0;0;0;0;8;0;460;0;0;0;0;9;0;159;0;0;0;0
01.01.19;17:15:00;1;791;8199;0;2;0;553;0;0;0;0;3;0;257;0;0;0;0;4;0;379;0;0;0;0;5;0;1602;2;0;0;0;0;0;6;0;1003;2;0;0;0;0;0;7;0;455;0;0;0;0;8;0;460;0;0;0;0;9;0;159;0;0;0;0
01.01.19;17:10:00;1;782;8132;0;2;0;553;0;0;0;0;3;0;257;0;0;0;0;4;0;379;0;0;0;0;5;0;1602;2;0;0;0;0;0;6;0;1003;2;0;0;0;0;0;7;0;455;0;0;0;0;8;0;460;0;0;0;0;9;0;159;0;0;0;0
01.01.19;17:05:00;1;703;8068;0;2;0;553;0;0;0;0;3;0;257;0;0;0;0;4;0;379;0;0;0;0;5;0;1602;2;0;0;0;0;0;6;0;1003;2;0;0;0;0;0;7;0;455;0;0;0;0;8;0;460;0;0;0;0;9;0;159;0;0;0;0
01.01.19;17:00:00;1;690;8009;0;2;0;553;0;0;0;0;3;0;257;0;0;0;0;4;0;379;0;0;0;0;5;0;1602;2;0;0;0;0;0;6;0;1003;2;0;0;0;0;0;7;0;455;0;0;0;0;8;0;460;0;0;0;0;9;0;159;0;0;0;0
01.01.19;16:55:00;1;704;7951;0;2;0;553;0;0;0;0;3;0;257;0;0;0;0;4;0;379;0;0;0;0;5;0;1602;2;0;0;0;0;0;6;0;1003;2;0;0;0;0;0;7;0;455;0;0;0;0;8;0;460;0;0;0;0;9;0;159;0;0;0;0
01.01.19;16:50:00;1;673;7893;0;2;0;553;0;0;0;0;3;0;257;0;0;0;0;4;0;379;0;0;0;0;5;0;1602;2;0;0;0;0;0;6;0;1003;2;0;0;0;0;0;7;0;455;0;0;0;0;8;0;460;0;0;0;0;9;0;159;0;0;0;0
01.01.19;16:45:00;1;792;7837;0;2;0;553;0;0;0;0;3;0;257;0;0;0;0;4;0;379;0;0;0;0;5;0;1602;2;0;0;0;0;0;6;0;1003;2;0;0;0;0;0;7;0;455;0;0;0;0;8;0;460;0;0;0;0;9;0;159;0;0;0;0
01.01.19;16:40:00;1;1254;7768;0;2;0;553;0;0;0;0;3;0;257;0;0;0;0;4;0;379;0;0;0;0;5;0;1602;2;0;0;0;0;0;6;0;1003;2;0;0;0;0;0;7;0;455;0;0;0;0;8;0;460;0;0;0;0;9;0;159;0;0;0;0
01.01.19;16:35:00;1;853;7664;0;2;0;553;0;0;0;0;3;0;257;0;0;35;1;4;0;379;0;0;0;0;5;0;1602;2;0;0;0;0;0;6;0;1003;0;0;0;0;0;0;7;0;455;0;0;0;0;8;0;460;0;0;0;0;9;0;159;0;0;0;0
01.01.19;16:30:00;1;671;7605;0;2;0;553;0;0;0;0;3;0;257;6;0;272;12;4;0;379;0;0;0;0;5;0;1602;2;0;0;0;0;0;6;0;1003;2;0;0;0;0;0;7;0;455;0;0;0;0;8;0;460;0;0;0;0;9;0;159;0;0;0;0
01.01.19;16:25:00;1;1139;7549;0;2;0;553;2;0;264;8;3;0;257;6;0;296;12;4;0;379;0;0;22;2;5;0;1602;2;0;0;0;0;0;6;0;1003;2;0;0;0;0;0;7;0;455;0;0;0;0;8;0;460;0;0;0;0;9;0;159;0;0;0;0
01.01.19;16:20:00;1;861;7468;0;2;0;553;6;0;292;8;3;0;257;6;0;327;12;4;0;379;2;0;82;9;5;0;1602;2;0;0;0;0;0;6;0;1003;1;0;0;0;0;1;7;0;455;0;0;0;0;8;0;460;0;0;0;0;9;0;159;0;0;0;0
01.01.19;16:15:00;1;845;7397;0;2;0;553;6;0;301;8;3;0;257;6;0;352;12;4;0;379;1;0;91;9;5;0;1602;2;0;0;29;28;3;6;0;1003;1;0;0;0;0;2;7;0;455;0;0;0;0;8;0;460;0;0;0;0;9;0;159;0;0;0;0
01.01.19;16:10:00;1;776;7327;0;2;0;553;6;0;321;8;3;0;257;6;0;390;12;4;0;379;1;0;111;9;5;0;1602;26;0;2;231;229;14;6;0;1003;1;0;0;0;0;8;7;0;455;0;0;0;0;8;0;460;0;0;0;0;9;0;159;0;0;0;0
01.01.19;16:05:00;1;749;7261;0;2;0;553;6;0;339;8;3;0;257;6;3;384;12;4;0;379;1;0;132;9;5;0;1602;1;0;1;325;323;20;6;0;1003;2;4;2;144;373;15;7;0;455;0;0;167;7;8;0;460;0;0;169;7;9;0;159;0;0;228;6
01.01.19;16:00:00;1;746;7196;0;2;0;553;6;0;369;9;3;0;257;6;1;445;12;4;0;379;1;0;176;9;5;0;1602;26;0;2;404;457;21;6;0;1003;23;8;4;181;537;19;7;0;455;6;0;335;13;8;0;460;6;0;342;12;9;0;159;6;0;361;8
01.01.19;15:55:00;1;715;7134;0;2;0;553;6;0;371;9;3;0;257;6;2;441;12;4;0;379;1;0;179;9;5;0;1602;23;0;1;407;546;21;6;0;1003;23;4;2;181;541;20;7;0;455;6;0;344;13;8;0;460;6;0;349;12;9;0;159;6;0;371;9
01.01.19;15:50:00;1;692;7078;0;2;0;553;6;0;404;9;3;3;257;6;8;466;12;4;0;379;3;0;212;10;5;57;1602;1;14;18;375;591;22;6;0;1003;23;8;2;347;582;20;7;2;455;6;1;430;13;8;1;460;6;3;417;12;9;0;159;6;0;476;9
01.01.19;15:45:00;1;671;7021;0;2;0;553;6;0;397;9;3;0;257;6;0;505;12;4;0;379;3;0;216;10;5;0;1596;8;0;0;427;679;21;6;0;1003;23;5;2;315;576;21;7;0;455;6;0;417;13;8;0;460;6;0;424;12;9;2;159;4;1;448;9
01.01.19;15:40:00;1;659;6968;0;2;0;553;6;0;412;9;3;2;257;4;9;479;12;4;0;379;3;0;227;10;5;82;1595;4;21;24;370;586;22;6;35;1003;1;16;15;496;464;22;7;1;455;6;2;448;13;8;1;460;6;3;451;13;9;1;159;3;2;476;9
01.01.19;15:35:00;1;1305;6914;0;2;0;553;6;0;417;9;3;0;257;6;5;505;12;4;0;379;3;0;217;10;5;94;1588;4;28;30;370;586;22;6;11;1000;4;11;7;559;563;21;7;0;455;6;4;455;13;8;3;459;6;10;435;13;9;3;158;6;6;475;9
01.01.19;15:30:00;1;934;6833;0;2;2;553;6;5;406;9;3;0;257;6;9;481;12;4;0;379;3;0;214;10;5;86;1581;4;24;28;370;586;22;6;47;999;1;22;22;509;487;22;7;0;455;6;1;454;13;8;1;459;6;1;456;13;9;0;158;6;1;500;9
01.01.19;15:25:00;1;711;6763;0;2;2;553;6;8;404;9;3;2;257;6;5;504;12;4;0;379;3;0;217;11;5;93;1574;4;28;31;370;586;22;6;60;994;4;18;19;489;467;22;7;2;455;4;4;454;13;8;1;459;4;4;456;13;9;2;158;6;2;503;9
01.01.19;15:20:00;1;693;6707;0;2;11;553;6;20;403;9;3;2;256;6;6;516;12;4;6;379;3;6;200;11;5;129;1566;4;50;48;370;586;22;6;85;989;4;36;36;489;466;22;7;6;454;3;9;455;13;8;3;459;3;10;457;13;9;0;158;6;3;524;9
01.01.19;15:15:00;1;697;6649;0;2;19;552;6;28;404;9;3;0;256;6;0;552;12;4;17;378;3;18;200;11;5;149;1555;4;57;61;370;586;22;6;105;981;4;50;55;489;466;22;7;8;454;6;11;477;13;8;10;459;6;21;451;13;9;0;158;6;0;558;9
01.01.19;15:10:00;1;2573;6591;0;2;14;550;6;22;405;9;3;5;256;4;15;498;12;4;9;377;3;9;199;11;5;137;1542;4;57;54;370;586;22;6;93;973;4;29;31;489;467;22;7;3;453;6;6;480;14;8;2;458;6;7;482;13;9;4;158;3;8;508;9
01.01.19;15:05:00;1;2611;6377;0;2;0;549;6;0;430;9;3;3;256;3;9;522;12;4;14;376;3;15;200;11;5;141;1531;4;56;55;370;586;22;6;98;965;4;48;53;489;466;22;7;8;453;6;17;447;14;8;5;458;6;9;478;13;9;2;158;6;5;516;9
01.01.19;15:00:00;1;2477;6164;0;2;14;549;4;21;405;10;3;5;255;6;13;498;12;4;4;375;3;4;200;11;5;145;1519;4;57;55;370;586;22;6;99;957;4;54;60;489;467;22;7;1;452;6;7;482;14;8;4;457;6;7;483;13;9;0;157;6;4;532;9
01.01.19;14:55:00;1;2428;5956;0;2;9;548;6;14;415;10;3;3;255;6;9;520;12;4;11;374;3;11;199;11;5;143;1507;4;57;57;370;586;22;6;98;948;4;52;57;489;467;22;7;0;452;6;0;498;14;8;0;457;6;0;502;13;9;0;157;6;4;526;9
01.01.19;14:50:00;1;876;5750;0;2;69;547;4;92;365;10;3;5;255;6;11;538;12;4;32;373;3;33;198;11;5;195;1494;4;88;79;370;586;22;6;135;940;4;52;71;489;466;22;7;50;452;4;76;369;14;8;49;457;4;76;381;14;9;7;157;6;13;519;9
01.01.19;14:45:00;1;494;5677;0;2;89;541;4;113;376;10;3;8;254;6;16;540;12;4;47;371;3;49;198;11;5;235;1478;4;109;103;370;586;22;6;163;928;4;84;87;489;467;22;7;47;448;4;91;450;14;8;62;453;4;90;459;14;9;0;157;6;0;578;9
01.01.19;14:40:00;1;532;5635;0;2;88;534;4;112;369;10;3;16;254;4;26;525;12;4;49;367;3;51;198;11;5;226;1458;4;109;96;370;586;22;6;158;914;4;75;73;489;466;22;7;45;444;4;90;444;14;8;66;448;4;91;424;13;9;11;157;3;19;528;9
01.01.19;14:35:00;1;795;5591;0;2;113;527;4;138;370;10;3;40;252;4;60;504;12;4;69;363;3;72;199;10;5;273;1439;4;125;116;370;586;22;6;192;901;4;102;105;489;467;22;7;68;440;4;107;468;14;8;82;442;4;112;462;13;9;8;156;6;13;556;9
01.01.19;14:30:00;1;441;5522;0;2;117;517;4;143;377;10;3;48;249;6;71;514;13;4;74;357;3;76;204;10;5;282;1416;4;134;122;370;586;22;6;200;885;4;113;113;489;467;22;7;82;434;4;118;466;13;8;87;435;4;115;468;13;9;33;155;6;42;513;9
01.01.19;14:25:00;1;452;5483;0;2;124;508;4;149;370;10;3;68;245;4;103;465;13;4;76;351;3;79;199;10;5;293;1393;4;141;124;370;586;22;6;203;868;4;108;107;489;467;22;7;105;428;4;137;458;13;8;104;428;4;137;460;13;9;10;152;6;15;556;9
01.01.19;14:20:00;1;415;5446;0;2;127;497;4;153;369;10;3;73;239;4;107;475;13;4;80;345;3;84;199;10;5;298;1368;4;141;126;370;586;22;6;207;851;4;111;111;489;467;22;7;110;419;4;136;470;13;8;107;419;4;143;447;13;9;10;151;6;14;566;9
01.01.19;14:15:00;1;455;5412;0;2;128;487;4;157;376;10;3;73;233;4;107;463;12;4;85;338;3;89;204;10;5;297;1344;4;143;125;370;586;22;6;205;834;4;88;90;489;466;22;7;109;410;4;142;436;13;8;108;410;4;143;436;13;9;22;151;6;31;527;9
01.01.19;14:10:00;1;490;5373;0;2;154;476;4;180;384;9;3;89;227;4;123;478;12;4;114;331;5;118;225;10;5;342;1319;4;169;147;370;586;22;6;243;816;4;111;111;489;467;22;7;135;401;4;165;449;13;8;128;402;4;160;459;12;9;60;149;6;81;475;9
01.01.19;14:05:00;1;444;5333;0;2;114;463;4;138;376;9;3;31;220;4;45;521;12;4;78;322;5;82;205;10;5;279;1290;4;133;123;370;586;22;6;199;796;4;82;83;489;466;21;7;96;389;4;124;430;13;8;86;391;4;109;456;12;9;28;144;4;36;528;9
01.01.19;14:00:00;1;474;5296;0;2;17;454;4;25;412;9;3;4;217;4;9;529;12;4;22;315;3;23;199;10;5;162;1268;4;67;65;370;586;22;6;112;780;4;61;65;489;467;21;7;7;381;6;9;488;13;8;11;384;6;19;467;12;9;2;142;6;5;543;9
01.01.19;13:55:00;1;458;5258;0;2;7;452;4;12;414;9;3;7;216;3;18;491;12;4;6;313;3;6;199;10;5;135;1255;4;54;51;370;586;22;6;88;771;4;45;47;489;466;21;7;7;381;6;9;477;13;8;6;383;6;16;451;12;9;3;142;3;11;493;9
01.01.19;13:50:00;1;430;5219;0;2;60;451;4;84;361;9;3;4;216;6;9;536;12;4;29;313;3;30;199;10;5;175;1244;4;77;70;370;586;22;6;125;763;4;77;82;489;467;21;7;17;380;6;32;432;13;8;25;383;6;43;409;13;9;4;141;6;6;541;9
01.01.19;13:45:00;1;1514;5181;0;2;31;446;4;40;412;9;3;16;215;6;28;505;12;4;40;310;3;42;220;10;5;211;1228;4;102;91;370;586;22;6;150;753;4;79;78;489;466;21;7;44;379;4;49;437;13;8;7;380;4;16;499;13;9;6;141;6;10;547;9
01.01.19;13:40:00;1;803;5046;0;2;11;443;4;19;401;9;3;1;214;6;6;519;12;4;1;307;3;1;216;10;5;123;1211;4;50;48;370;586;22;6;81;741;4;39;40;489;467;21;7;2;375;6;4;473;13;8;5;380;3;14;453;13;9;0;140;6;6;496;9
01.01.19;13:35:00;1;427;4983;0;2;57;442;4;80;363;9;3;4;214;6;11;529;12;4;24;307;3;24;199;10;5;170;1201;4;73;67;370;586;22;6;121;733;4;59;64;489;469;20;7;7;375;4;10;482;13;8;8;379;6;11;482;13;9;4;140;6;8;535;9
01.01.19;13:30:00;1;387;4949;0;2;41;437;4;57;385;9;3;0;214;6;0;555;12;4;22;305;3;23;199;10;5;162;1186;4;70;65;370;586;22;6;6;724;8;14;7;573;551;20;7;25;374;4;31;434;13;8;21;378;4;33;435;13;9;3;140;6;7;540;9
01.01.19;13:25:00;1;1153;4916;0;2;12;434;6;21;394;9;3;3;214;3;14;480;12;4;4;303;3;4;228;10;5;114;1173;4;41;44;370;586;22;6;18;723;4;18;12;392;456;20;7;2;372;6;5;463;13;8;1;376;6;7;466;13;9;1;140;4;4;513;9
01.01.19;13:20:00;1;2544;4804;0;2;4;433;6;8;412;9;3;1;213;6;6;515;12;4;3;303;3;3;205;10;5;116;1163;4;46;42;370;586;22;6;36;721;1;19;13;397;377;20;7;4;371;4;8;443;13;8;2;376;4;8;450;13;9;0;140;6;3;515;9
01.01.19;13:15:00;1;2307;4587;0;2;2;433;6;7;404;9;3;1;213;6;6;502;12;4;0;302;3;0;225;10;5;94;1154;4;29;30;369;586;22;6;9;719;8;17;10;522;529;20;7;3;371;3;4;427;13;8;1;376;3;6;430;13;9;2;140;6;2;499;9
01.01.19;13:10:00;1;2262;4395;0;2;3;432;6;6;404;9;3;2;213;6;4;503;12;4;0;302;3;0;221;10;5;90;1146;4;28;30;370;586;22;6;14;718;4;14;6;407;488;21;7;1;371;6;1;453;13;8;2;376;6;1;457;13;9;1;140;6;1;479;9